{"data":{"norad_id":45603,"intl_designator":"2020-028B","name":"XINGYUN-2 02","alt_names":[],"object_type":"PAYLOAD","status":"ACTIVE","operator":null,"country":"PRC","launch_date":"2020-05-12","launch_site_code":"JSC","launch_vehicle":null,"mission":null,"orbit_class":"UNKNOWN","rcs_meters":null,"size_class":null,"mass_kg":null,"dimensions":null,"purposes":[],"wikipedia_slug":null,"has_3d_model":false,"image_url":null,"decayed_at":null,"tle_current":{"epoch":"2026-09-20T05:44:27.075264Z","epoch_age_seconds":90399,"freshness":"FRESH","line1":"1 45603U 20028B   26263.23920226  .00000702  00000+0  44780-4 0  9990","line2":"2 45603  97.5116 267.6004 0009662 311.7866  48.2538 15.11851887349190","mean_motion":15.11851887,"eccentricity":0.0009662,"inclination_deg":97.5116,"raan_deg":267.6004,"arg_perigee_deg":311.7866,"mean_anomaly_deg":48.2538,"bstar":4.478e-5,"rev_number":34919,"period_min":95.247425517153,"perigee_km":523.87736647125,"apogee_km":537.2277181428,"semimajor_km":6908.689542307,"source":"CELESTRAK","updated_at":"2026-09-20T09:00:14.700017Z"}}}